| time (UTC) | temp F | wind direction | speed MPH | gust MPH | rain 1hr in | rain 24hr in | rain mn in | humidity % | barometer mb |
| 20260502163657 | 55 | 45 | 0.0 | 0.0 | 0.00 | 0.00 | 0.00 | 99 | 1012.0 |
| 20260502123659 | 63 | 45 | 0.0 | 0.0 | 0.00 | 0.00 | 0.00 | 73 | 1011.0 |
| 20260502115158 | 63 | 90 | 0.0 | 2.0 | 0.00 | 0.00 | 0.00 | 69 | 1010.0 |
| 20260502113657 | 63 | 67 | 0.0 | 2.0 | 0.00 | 0.00 | 0.00 | 72 | 1010.0 |
| 20260502105158 | 66 | 45 | 0.0 | 5.0 | 0.00 | 0.00 | 0.00 | 59 | 1009.0 |
| 20260502103657 | 66 | 157 | 0.0 | 5.0 | 0.00 | 0.00 | 0.00 | 54 | 1009.0 |
| 20260502065159 | 81 | 270 | 6.0 | 14.0 | 0.00 | 0.00 | 0.00 | 31 | 1006.0 |
| 20260502063658 | 82 | 45 | 4.0 | 14.0 | 0.00 | 0.00 | 0.00 | 32 | 1006.0 |
| 20260502055158 | 82 | 292 | 6.0 | 16.0 | 0.00 | 0.00 | 0.00 | 27 | 1005.0 |
| 20260502053658 | 81 | 270 | 4.0 | 16.0 | 0.00 | 0.00 | 0.00 | 28 | 1005.0 |
| 20260502045159 | 81 | 270 | 10.0 | 14.0 | 0.00 | 0.00 | 0.00 | 28 | 1005.0 |
| 20260502043658 | 81 | 270 | 6.0 | 14.0 | 0.00 | 0.01 | 0.00 | 30 | 1005.0 |
| 20260502035159 | 81 | 315 | 14.0 | 18.0 | 0.00 | 0.03 | 0.00 | 30 | 1004.0 |
| 20260502033658 | 79 | 112 | 9.0 | 18.0 | 0.00 | 0.06 | 0.00 | 30 | 1004.0 |
| 20260502025157 | 79 | 292 | 10.0 | 14.0 | 0.00 | 0.18 | 0.00 | 38 | 1003.0 |
| 20260502023657 | 79 | 270 | 6.0 | 13.0 | 0.00 | 0.19 | 0.00 | 45 | 1003.0 |
| 20260502015158 | 77 | 315 | 6.0 | 14.0 | 0.00 | 0.25 | 0.00 | 54 | 1003.0 |
| 20260502013658 | 75 | 270 | 6.0 | 14.0 | 0.00 | 0.28 | 0.00 | 52 | 1003.0 |
| 20260502005158 | 72 | 315 | 6.0 | 14.0 | 0.00 | 0.56 | 0.00 | 48 | 1003.0 |
| 20260502003658 | 72 | 270 | 10.0 | 14.0 | 0.00 | 0.64 | 0.00 | 53 | 1003.0 |
| 20260501235158 | 70 | 337 | 10.0 | 12.0 | 0.00 | 0.88 | 0.00 | 51 | 1002.0 |
| 20260501233658 | 68 | 315 | 6.0 | 10.0 | 0.00 | 0.92 | 0.00 | 54 | 1002.0 |
| 20260501225159 | 64 | 225 | 2.0 | 6.0 | 0.00 | 1.07 | 0.00 | 71 | 1001.0 |
| 20260501223658 | 64 | 270 | 5.0 | 6.0 | 0.00 | 1.10 | 0.00 | 75 | 1001.0 |
| 20260501215157 | 61 | 225 | 0.0 | 4.0 | 0.00 | 1.19 | 0.00 | 89 | 1000.0 |
| 20260501213657 | 59 | 270 | 2.0 | 5.0 | 0.00 | 1.20 | 0.00 | 90 | 1000.0 |
| 20260501205157 | 57 | 180 | 0.0 | 12.0 | 0.00 | 1.22 | 0.00 | 94 | 999.0 |
| 20260501203659 | 57 | 270 | 2.0 | 12.0 | 0.00 | 1.24 | 0.00 | 94 | 999.0 |
| 20260501195157 | 55 | 292 | 6.0 | 10.0 | 0.00 | 1.33 | 0.00 | 99 | 997.0 |
| 20260501193659 | 55 | 270 | 8.0 | 10.0 | 0.00 | 1.34 | 0.00 | 99 | 997.0 |
| 20260501185158 | 54 | 225 | 6.0 | 8.0 | 0.00 | 1.42 | 0.00 | 99 | 995.0 |
| 20260501183657 | 54 | 270 | 4.0 | 6.0 | 0.00 | 1.43 | 0.00 | 99 | 995.0 |
| 20260501175157 | 54 | 225 | 4.0 | 6.0 | 0.00 | 1.48 | 0.00 | 99 | 995.0 |
| 20260501173659 | 54 | 225 | 2.0 | 8.0 | 0.00 | 1.50 | 0.00 | 99 | 995.0 |